Location: Borgo
(42.3939°N, 9.2791°E)
Time: 02:02:51
(UTC+00:00)

NOSS 3-1 (C) - Pass Details

Date: 24 January 2021
Orbit: 732 x 1476 km, 63.4° (Epoch: 05 March)

Event Time Altitude Azimuth Distance (km) Brightness Sun altitude
Rises 18:13:48 0° 324° (NW) 3,969 7.1 -19.7°
Reaches altitude 10° 18:16:20 10° 324° (NW) 3,105 6.5 -20.2°
Maximum altitude 18:24:00 88° 55° (NE) 1,333 4.1 -21.6°
Drops below altitude 10° 18:32:51 10° 146° (SE) 3,546 6.1 -23.2°
Enters shadow 18:35:23 - 146° (SE) 4,383 6.6 -23.7°
